La Grande, OR

7:15 AM PST on February 26, 2017 (GMT -0800)
La Grande-Union County

Weather History for KLGD - October, 2011

Change the Weather History Date:

Thursday, October 6, 2011

  Actual Average Record
Temperature  
Mean Temperature 44 °F -  
Max Temperature 46 °F 64 °F 87 °F (1980)
Min Temperature 41 °F 35 °F 20 °F (1974)
Degree Days  
Heating Degree Days 22    
Moisture  
Dew Point 35 °F    
Average Humidity 69    
Maximum Humidity 71    
Minimum Humidity 62    
Precipitation  
Precipitation 0.00 in - - ()
Sea Level Pressure  
Sea Level Pressure 29.79 in    
Wind  
Wind Speed 7 mph (NNW)    
Max Wind Speed 14 mph    
Max Gust Speed 18 mph    
Visibility 10 miles    
Events      
Averages and records for this station are not official NWS values.
T = Trace of Precipitation, MM = Missing Value Source: NWS Daily Summary

Daily Weather History Graph

Daily Weather History Graph

Search for Another Location

Airport or City:

Trip Planner

Search our weather history database for the weather conditions in past years. The results will help you decide how hot, cold, wet, or windy it might be!

Date:

Astronomy

Oct. 06, 2011 Rise Set
Actual Time 6:56 AM PDT 6:23 PM PDT
Civil Twilight 6:26 AM PDT 6:52 PM PDT
Nautical Twilight 5:52 AM PDT 7:26 PM PDT
Astronomical Twilight 5:18 AM PDT 8:01 PM PDT
Moon 3:50 PM PDT (10/6) 1:35 AM PDT (10/6)
Length of Visible Light 12h 26m
Length of Day
11h 27m
Waxing Gibbous, 76% of the Moon is Illuminated
Oct 6
Waxing Gibbous
Oct 11
Full
Oct 19
Last Quarter
Oct 26
New
Nov 2
First Quarter

Hourly Weather History & Observations

Time (PDT) Temp. Windchill Dew Point Humidity Pressure Visibility Wind Dir Wind Speed Gust Speed Precip Events Conditions
12:15 AM 42.8 °F 38.6 °F 33.8 °F 70% 29.68 in 10.0 mi ESE 6.9 mph - N/A   Overcast
12:35 AM 42.8 °F 39.3 °F 33.8 °F 70% 29.68 in 10.0 mi ESE 5.8 mph - N/A   Mostly Cloudy
12:55 AM 42.8 °F - 33.8 °F 70% 29.69 in 10.0 mi Calm Calm - N/A   Overcast
1:15 AM 42.8 °F 41.1 °F 33.8 °F 70% 29.69 in 10.0 mi ENE 3.5 mph - N/A   Overcast
1:35 AM 42.8 °F 38.6 °F 33.8 °F 70% 29.69 in 10.0 mi East 6.9 mph - N/A   Overcast
1:55 AM 42.8 °F - 33.8 °F 70% 29.69 in 10.0 mi Calm Calm - N/A   Overcast
2:35 AM 42.8 °F 38.6 °F 33.8 °F 70% 29.69 in 10.0 mi SE 6.9 mph - N/A   Overcast
2:55 AM 42.8 °F 39.3 °F 33.8 °F 70% 29.69 in 10.0 mi ESE 5.8 mph - N/A   Overcast
3:15 AM 42.8 °F - 33.8 °F 70% 29.70 in 10.0 mi Calm Calm - N/A   Overcast
3:35 AM 42.8 °F 41.1 °F 33.8 °F 70% 29.70 in 10.0 mi SE 3.5 mph - N/A   Overcast
3:55 AM 42.8 °F 40.1 °F 33.8 °F 70% 29.70 in 10.0 mi ESE 4.6 mph - N/A   Overcast
4:15 AM 42.8 °F 39.3 °F 33.8 °F 70% 29.71 in 10.0 mi ESE 5.8 mph - N/A   Overcast
4:35 AM 42.8 °F 39.3 °F 33.8 °F 70% 29.71 in 10.0 mi WNW 5.8 mph - N/A   Overcast
4:55 AM 42.8 °F 38.0 °F 33.8 °F 70% 29.72 in 10.0 mi NW 8.1 mph - N/A   Overcast
5:15 AM 42.8 °F 38.6 °F 33.8 °F 70% 29.72 in 10.0 mi NW 6.9 mph - N/A   Overcast
5:35 AM 42.8 °F 37.5 °F 33.8 °F 70% 29.73 in 10.0 mi NNW 9.2 mph - N/A   Overcast
5:55 AM 42.8 °F 37.5 °F 33.8 °F 70% 29.74 in 10.0 mi NNW 9.2 mph - N/A   Overcast
6:15 AM 42.8 °F 37.5 °F 33.8 °F 70% 29.74 in 10.0 mi NNW 9.2 mph - N/A   Overcast
6:55 AM 42.8 °F 37.5 °F 33.8 °F 70% 29.75 in 10.0 mi NW 9.2 mph - N/A   Overcast
7:15 AM 42.8 °F 37.5 °F 33.8 °F 70% 29.75 in 10.0 mi NW 9.2 mph - N/A   Overcast
7:35 AM 42.8 °F 38.6 °F 33.8 °F 70% 29.76 in 10.0 mi NW 6.9 mph - N/A   Overcast
7:55 AM 41.0 °F 35.8 °F 32.0 °F 70% 29.76 in 10.0 mi NW 8.1 mph - N/A   Overcast
8:55 AM 41.0 °F 35.8 °F 32.0 °F 70% 29.78 in 10.0 mi NNW 8.1 mph - N/A   Overcast
9:15 AM 42.8 °F 39.3 °F 32.0 °F 66% 29.80 in 10.0 mi NNW 5.8 mph - N/A   Overcast
9:35 AM 42.8 °F 38.0 °F 33.8 °F 70% 29.79 in 10.0 mi NNW 8.1 mph - N/A   Mostly Cloudy
9:55 AM 42.8 °F 37.0 °F 33.8 °F 70% 29.80 in 10.0 mi NNW 10.4 mph - N/A   Overcast
10:15 AM 42.8 °F 36.6 °F 33.8 °F 70% 29.80 in 10.0 mi NW 11.5 mph - N/A   Overcast
10:35 AM 42.8 °F 36.6 °F 33.8 °F 70% 29.81 in 10.0 mi NNW 11.5 mph - N/A   Overcast
10:55 AM 44.6 °F 39.2 °F 33.8 °F 66% 29.82 in 10.0 mi NW 10.4 mph - N/A   Overcast
11:15 AM 44.6 °F 38.4 °F 33.8 °F 66% 29.81 in 10.0 mi NW 12.7 mph - N/A   Overcast
11:35 AM 44.6 °F 38.8 °F 33.8 °F 66% 29.82 in 10.0 mi NW 11.5 mph 18.4 mph N/A   Overcast
11:55 AM 46.4 °F 40.7 °F 33.8 °F 62% 29.82 in 10.0 mi NW 12.7 mph - N/A   Overcast
12:15 PM 46.4 °F 40.4 °F 35.6 °F 66% 29.82 in 10.0 mi WNW 13.8 mph - N/A   Overcast
12:35 PM 46.4 °F 41.1 °F 35.6 °F 66% 29.82 in 10.0 mi NW 11.5 mph - N/A   Overcast
12:55 PM 46.4 °F 41.5 °F 35.6 °F 66% 29.83 in 10.0 mi NW 10.4 mph - N/A   Overcast
1:15 PM 46.4 °F 41.9 °F 35.6 °F 66% 29.83 in 10.0 mi NW 9.2 mph 16.1 mph N/A   Overcast
1:35 PM 46.4 °F 40.7 °F 35.6 °F 66% 29.83 in 10.0 mi NW 12.7 mph - N/A   Overcast
1:55 PM 46.4 °F 41.5 °F 35.6 °F 66% 29.84 in 10.0 mi NW 10.4 mph - N/A   Overcast
2:15 PM 46.4 °F 40.7 °F 35.6 °F 66% 29.84 in 10.0 mi NW 12.7 mph 18.4 mph N/A   Overcast
2:35 PM 46.4 °F 41.5 °F 35.6 °F 66% 29.84 in 10.0 mi NW 10.4 mph - N/A   Overcast
2:55 PM 46.4 °F 41.1 °F 35.6 °F 66% 29.85 in 10.0 mi NW 11.5 mph - N/A   Overcast
3:15 PM 46.4 °F 41.1 °F 37.4 °F 71% 29.85 in 10.0 mi NW 11.5 mph - N/A   Overcast
3:35 PM 46.4 °F 40.7 °F 37.4 °F 71% 29.86 in 10.0 mi NW 12.7 mph - N/A   Overcast
3:55 PM 46.4 °F 41.1 °F 37.4 °F 71% 29.86 in 10.0 mi NW 11.5 mph - N/A   Overcast
4:15 PM 46.4 °F 41.5 °F 37.4 °F 71% 29.86 in 10.0 mi NNW 10.4 mph - N/A   Overcast
4:35 PM 46.4 °F 41.1 °F 37.4 °F 71% 29.87 in 10.0 mi NW 11.5 mph - N/A   Overcast
4:55 PM 46.4 °F 42.4 °F 35.6 °F 66% 29.87 in 10.0 mi NW 8.1 mph - N/A   Overcast
5:15 PM 46.4 °F 41.1 °F 37.4 °F 71% 29.88 in 10.0 mi NNW 11.5 mph - N/A   Overcast
5:35 PM 46.4 °F 41.9 °F 37.4 °F 71% 29.89 in 10.0 mi NNW 9.2 mph - N/A   Overcast
5:55 PM 46.4 °F 41.9 °F 37.4 °F 71% 29.89 in 10.0 mi NNW 9.2 mph - N/A   Overcast
6:15 PM 46.4 °F 41.5 °F 37.4 °F 71% 29.90 in 10.0 mi NNW 10.4 mph - N/A   Overcast
6:35 PM 46.4 °F 41.9 °F 37.4 °F 71% 29.90 in 10.0 mi NNW 9.2 mph - N/A   Overcast
7:15 PM 46.4 °F 41.5 °F 37.4 °F 71% 29.91 in 10.0 mi North 10.4 mph - N/A   Overcast
7:35 PM 46.4 °F 42.9 °F 37.4 °F 71% 29.92 in 10.0 mi NE 6.9 mph - N/A   Overcast
7:55 PM 46.4 °F 42.9 °F 37.4 °F 71% 29.93 in 10.0 mi North 6.9 mph - N/A   Overcast
8:15 PM 48.2 °F - 37.4 °F 66% 29.93 in 10.0 mi NNW 9.2 mph - N/A   Overcast
8:35 PM 48.2 °F - 37.4 °F 66% 29.93 in 10.0 mi North 8.1 mph - N/A   Overcast
8:55 PM 48.2 °F - 37.4 °F 66% 29.93 in 10.0 mi North 11.5 mph - N/A   Overcast
9:15 PM 48.2 °F - 37.4 °F 66% 29.93 in 10.0 mi NNW 11.5 mph - N/A   Overcast
9:35 PM 48.2 °F - 37.4 °F 66% 29.93 in 10.0 mi North 11.5 mph 17.3 mph N/A   Overcast
9:55 PM 48.2 °F - 37.4 °F 66% 29.92 in 10.0 mi North 10.4 mph - N/A   Overcast
10:15 PM 48.2 °F - 37.4 °F 66% 29.92 in 10.0 mi NNW 12.7 mph - N/A   Overcast
10:35 PM 48.2 °F - 37.4 °F 66% 29.92 in 10.0 mi NNW 13.8 mph - N/A   Overcast
10:55 PM 48.2 °F - 37.4 °F 66% 29.93 in 10.0 mi NW 18.4 mph - N/A   Overcast
11:15 PM 48.2 °F - 37.4 °F 66% 29.93 in 10.0 mi NW 17.3 mph - N/A   Overcast
11:35 PM 48.2 °F - 37.4 °F 66% 29.93 in 10.0 mi NNW 17.3 mph - N/A   Overcast
11:55 PM 48.2 °F - 37.4 °F 66% 29.93 in 10.0 mi NW 16.1 mph - N/A   Overcast